DECAYED

OBJECT AA, 43900 (Decayed)

Orbit data source: Space-Track

You're viewing an uncataloged RSO

Recently launched and/or uncataloged RSOs may have evolving metadata. Metadata may include the following, but is not limited to: Owner, Manufacturer, Bus, Motor, and Mission.

OBJECT AA, 43900 was a satellite in LEO that was launched on Thu, 27 Dec 2018 UTC via a SOYUZ-2-1A launch vehicle from the Vostochny Cosmodrome (VOSTO). Unknown objects in Earth's orbit typically refer to objects detected orbiting the Earth but have not yet been identified or cataloged. These objects could be anything from previously untracked satellites, spent rocket stages, debris from satellite collisions, or even natural meteoroids temporarily captured by Earth's gravity. This object's orbit decayed before it could be identified.

Not visible in the next 10 days
Identifier
43900, 2018-111AA
Orbit
Decayed
Country
Flag of TBDTBD
Related business
None
Manufacturer
Unknown
Mission
Decayed Civil Technology
Bus & Motor
Unknown
Mass
Unknown
Launch date (UTC)
2018-12-27 (8 years ago)
Launch vehicle
SOYUZ-2-1A
Launch site
Vostochny Cosmodrome (VOSTO)
Object type
Unknown
Shape & HBR
Box, 0.2 m
Radar Cross Section
0.080 m², Medium (>0.1 m² and < 1m²)

Expand to show TLE details & history
Last TLE update: 2 months ago

TLE from 2 months ago
0 OBJECT AA
1 43900U 18111AA  26205.90217367  .08991066  22173-5  31390-3 0  9996
2 43900  96.9177  74.3886 0008484 298.5529  61.4919 16.43821547424705
Epoch: 2026-07-24T21:39Z
TLE epoch observation values (Epoch: 2026-07-24T21:39:07.805Z)
Latitude
-0.00003°
Longitude
166.98394°
Altitude
156.284 km
Speed
7.814 km/s
True Right ascension
04h 57m 33s
True Declination
0° 00' 00"
Sunlit
Object was in daylight at epoch
Visualization orbit readout
Latitude
Unknown
Longitude
Unknown
Altitude
Unknown
Speed
Unknown
Apparent Right ascension
Unknown
Apparent Declination
Unknown
Sunlit
N/A
Visualization observer readout
Local Sidereal Time
12:40:37
Azimuth
Unknown
Elevation
Unknown
Doppler factor
Unknown
Orbital elements
Apogee altitude
157.978 km
Perigee altitude
146.897 km
Semi-major axis
6,530.575 km
Eccentricity
0.00085
Inclination
96.9177°
RAAN
74.3886°
Arg. of periapsis
298.5529°
True anomaly
61.57737°
Mean anomaly
61.4919°
Eccentric anomaly
61.53463°
Mean motion
4.1126 °/min
Orbital period
87.54 mins
BSTAR
0.0003139
Loading maneuver chart data...
Computing Atmospheric mass density...

Documentation

Showing up to 5 results
|